Location: Ottawa
(45.4170°N, 75.7000°W)
Time: 22:10:40
(UTC-04:00)

ISS - Pass Details

Date: 22 May 2021
Orbit: 417 x 422 km, 51.6° (Epoch: 13 June)

Event Time Altitude Azimuth Distance (km) Brightness Sun altitude
Rises 23:57:28 0° 298° (WNW) 2,369 0.7 -22.7°
Reaches altitude 10° 23:59:38 10° 306° (NW) 1,504 -0.3 -22.8°
Maximum altitude 00:02:52 43° 19° (NNE) 604 -2.7 -22.9°
Enters shadow 00:02:56 43° 23° (NNE) 605 -2.7 -22.9°
